| time (UTC) | temp F | wind direction | speed MPH | gust MPH | rain 1hr in | rain 24hr in | rain mn in | humidity % | barometer mb |
| 20260509023123 | 59 | 223 | 2.0 | 8.0 | 0.00 | 0.00 | 0.00 | 62 | 1020.5 |
| 20260509022143 | 59 | 227 | 2.0 | 10.0 | 0.00 | 0.00 | 0.00 | 61 | 1020.6 |
| 20260509021124 | 59 | 247 | 4.0 | 14.0 | 0.00 | 0.00 | 0.00 | 61 | 1020.5 |
| 20260509020123 | 59 | 242 | 3.0 | 10.0 | 0.00 | 0.00 | 0.00 | 60 | 1020.4 |
| 20260509015123 | 59 | 233 | 3.0 | 10.0 | 0.00 | 0.00 | 0.00 | 59 | 1020.5 |
| 20260509014123 | 60 | 224 | 3.0 | 13.0 | 0.00 | 0.00 | 0.00 | 58 | 1020.5 |
| 20260509013122 | 60 | 217 | 3.0 | 14.0 | 0.00 | 0.00 | 0.00 | 57 | 1020.5 |
| 20260509012124 | 61 | 174 | 2.0 | 14.0 | 0.00 | 0.00 | 0.00 | 56 | 1020.3 |
| 20260509011122 | 62 | 241 | 2.0 | 8.0 | 0.00 | 0.00 | 0.00 | 54 | 1020.4 |
| 20260509010122 | 63 | 252 | 1.0 | 8.0 | 0.00 | 0.00 | 0.00 | 53 | 1020.4 |
| 20260509005143 | 63 | 252 | 2.0 | 6.0 | 0.00 | 0.00 | 0.00 | 54 | 1020.4 |
| 20260509004122 | 62 | 201 | 3.0 | 10.0 | 0.00 | 0.00 | 0.00 | 54 | 1020.4 |
| 20260509003122 | 62 | 223 | 1.0 | 6.0 | 0.00 | 0.00 | 0.00 | 55 | 1020.4 |
| 20260509002124 | 61 | 158 | 3.0 | 13.0 | 0.00 | 0.00 | 0.00 | 57 | 1020.4 |
| 20260509001122 | 60 | 233 | 1.0 | 6.0 | 0.00 | 0.00 | 0.00 | 57 | 1020.4 |
| 20260509000122 | 61 | 220 | 3.0 | 14.0 | 0.00 | 0.00 | 0.00 | 57 | 1020.3 |
| 20260508235122 | 60 | 207 | 2.0 | 8.0 | 0.00 | 0.00 | 0.00 | 57 | 1020.3 |
| 20260508234122 | 60 | 221 | 2.0 | 11.0 | 0.00 | 0.00 | 0.00 | 58 | 1020.3 |
| 20260508233123 | 60 | 243 | 4.0 | 16.0 | 0.00 | 0.00 | 0.00 | 58 | 1020.2 |
| 20260508232145 | 60 | 228 | 4.0 | 14.0 | 0.00 | 0.00 | 0.00 | 58 | 1020.2 |
| 20260508231124 | 60 | 237 | 4.0 | 16.0 | 0.00 | 0.00 | 0.00 | 60 | 1020.2 |
| 20260508230143 | 60 | 238 | 4.0 | 19.0 | 0.00 | 0.00 | 0.00 | 60 | 1020.1 |
| 20260508225124 | 60 | 210 | 2.0 | 8.0 | 0.00 | 0.00 | 0.00 | 60 | 1020.0 |
| 20260508224143 | 59 | 194 | 2.0 | 13.0 | 0.00 | 0.00 | 0.00 | 61 | 1020.0 |
| 20260508223123 | 59 | 145 | 5.0 | 18.0 | 0.00 | 0.00 | 0.00 | 61 | 1020.1 |
| 20260508222145 | 59 | 265 | 3.0 | 13.0 | 0.00 | 0.00 | 0.00 | 61 | 1020.0 |
| 20260508221145 | 60 | 225 | 4.0 | 16.0 | 0.00 | 0.00 | 0.00 | 61 | 1020.0 |
| 20260508220122 | 60 | 228 | 4.0 | 14.0 | 0.00 | 0.00 | 0.00 | 60 | 1019.9 |
| 20260508215122 | 60 | 222 | 4.0 | 18.0 | 0.00 | 0.00 | 0.00 | 62 | 1019.9 |
| 20260508214124 | 60 | 213 | 2.0 | 14.0 | 0.00 | 0.00 | 0.00 | 61 | 1019.9 |
| 20260508213122 | 59 | 235 | 3.0 | 11.0 | 0.00 | 0.00 | 0.00 | 62 | 1019.9 |
| 20260508212122 | 59 | 214 | 2.0 | 14.0 | 0.00 | 0.00 | 0.00 | 63 | 1020.0 |
| 20260508211123 | 59 | 173 | 3.0 | 19.0 | 0.00 | 0.00 | 0.00 | 63 | 1019.8 |
| 20260508210123 | 59 | 219 | 4.0 | 11.0 | 0.00 | 0.00 | 0.00 | 64 | 1019.7 |
| 20260508205122 | 58 | 158 | 5.0 | 19.0 | 0.00 | 0.00 | 0.00 | 66 | 1019.6 |
| 20260508204122 | 58 | 206 | 4.0 | 14.0 | 0.00 | 0.00 | 0.00 | 65 | 1019.6 |
| 20260508203143 | 58 | 155 | 6.0 | 19.0 | 0.00 | 0.00 | 0.00 | 65 | 1019.6 |
| 20260508202124 | 58 | 152 | 7.0 | 26.0 | 0.00 | 0.00 | 0.00 | 66 | 1019.5 |
| 20260508201122 | 58 | 155 | 6.0 | 24.0 | 0.00 | 0.00 | 0.00 | 66 | 1019.5 |
| 20260508200145 | 58 | 146 | 6.0 | 19.0 | 0.00 | 0.00 | 0.00 | 65 | 1019.3 |
| 20260508195122 | 59 | 184 | 2.0 | 13.0 | 0.00 | 0.00 | 0.00 | 64 | 1019.2 |
| 20260508194122 | 59 | 151 | 3.0 | 14.0 | 0.00 | 0.00 | 0.00 | 65 | 1019.1 |
| 20260508193122 | 60 | 203 | 3.0 | 16.0 | 0.00 | 0.00 | 0.00 | 64 | 1019.0 |
| 20260508192124 | 59 | 226 | 3.0 | 14.0 | 0.00 | 0.00 | 0.00 | 66 | 1018.8 |
| 20260508191122 | 59 | 214 | 4.0 | 13.0 | 0.00 | 0.00 | 0.00 | 65 | 1018.9 |
| 20260508190124 | 59 | 167 | 4.0 | 19.0 | 0.00 | 0.00 | 0.00 | 66 | 1018.8 |
| 20260508185122 | 58 | 217 | 4.0 | 14.0 | 0.00 | 0.00 | 0.00 | 65 | 1018.7 |
| 20260508184124 | 58 | 168 | 2.0 | 8.0 | 0.00 | 0.00 | 0.00 | 66 | 1018.6 |
| 20260508183124 | 57 | 219 | 3.0 | 13.0 | 0.00 | 0.00 | 0.00 | 68 | 1018.5 |
| 20260508182143 | 57 | 225 | 4.0 | 14.0 | 0.00 | 0.00 | 0.00 | 69 | 1018.5 |
| 20260508181124 | 57 | 219 | 4.0 | 14.0 | 0.00 | 0.00 | 0.00 | 69 | 1018.5 |
| 20260508180122 | 57 | 196 | 3.0 | 14.0 | 0.00 | 0.00 | 0.00 | 70 | 1018.2 |
| 20260508175122 | 57 | 179 | 4.0 | 14.0 | 0.00 | 0.00 | 0.00 | 72 | 1018.0 |
| 20260508174124 | 57 | 144 | 5.0 | 14.0 | 0.00 | 0.00 | 0.00 | 72 | 1018.0 |
| 20260508173122 | 57 | 159 | 5.0 | 18.0 | 0.00 | 0.00 | 0.00 | 72 | 1018.0 |
| 20260508172124 | 58 | 199 | 2.0 | 13.0 | 0.00 | 0.00 | 0.00 | 71 | 1017.7 |
| 20260508171124 | 58 | 167 | 4.0 | 21.0 | 0.00 | 0.00 | 0.00 | 71 | 1017.5 |
| 20260508170143 | 58 | 131 | 9.0 | 21.0 | 0.00 | 0.00 | 0.00 | 71 | 1017.3 |
| 20260508165123 | 58 | 132 | 5.0 | 13.0 | 0.00 | 0.00 | 0.00 | 72 | 1017.4 |
| 20260508164144 | 58 | 134 | 5.0 | 18.0 | 0.00 | 0.00 | 0.00 | 73 | 1017.3 |
| 20260508163122 | 57 | 150 | 6.0 | 18.0 | 0.00 | 0.00 | 0.00 | 73 | 1017.3 |
| 20260508162122 | 58 | 145 | 2.0 | 10.0 | 0.00 | 0.00 | 0.00 | 73 | 1017.2 |
| 20260508161123 | 57 | 142 | 5.0 | 19.0 | 0.00 | 0.00 | 0.00 | 73 | 1017.1 |
| 20260508160122 | 57 | 131 | 6.0 | 19.0 | 0.00 | 0.00 | 0.00 | 73 | 1016.9 |
| 20260508155143 | 57 | 144 | 3.0 | 11.0 | 0.00 | 0.00 | 0.00 | 74 | 1016.8 |
| 20260508154122 | 57 | 160 | 2.0 | 11.0 | 0.00 | 0.00 | 0.00 | 74 | 1016.8 |
| 20260508153123 | 57 | 233 | 1.0 | 10.0 | 0.00 | 0.00 | 0.00 | 76 | 1016.9 |
| 20260508152124 | 56 | 162 | 1.0 | 10.0 | 0.00 | 0.00 | 0.00 | 76 | 1016.8 |
| 20260508151145 | 56 | 221 | 3.0 | 11.0 | 0.00 | 0.00 | 0.00 | 76 | 1016.8 |
| 20260508150122 | 57 | 224 | 1.0 | 6.0 | 0.00 | 0.00 | 0.00 | 76 | 1016.8 |
| 20260508145124 | 56 | 0 | 0.0 | 0.0 | 0.00 | 0.00 | 0.00 | 77 | 1016.6 |
| 20260508144124 | 56 | 134 | 0.0 | 3.0 | 0.00 | 0.00 | 0.00 | 77 | 1016.5 |
| 20260508143122 | 56 | 119 | 1.0 | 5.0 | 0.00 | 0.00 | 0.00 | 77 | 1016.3 |
| 20260508142123 | 56 | 120 | 0.0 | 5.0 | 0.00 | 0.00 | 0.00 | 77 | 1016.3 |
| 20260508141122 | 56 | 0 | 0.0 | 0.0 | 0.00 | 0.00 | 0.00 | 78 | 1016.3 |
| 20260508140122 | 56 | 0 | 0.0 | 0.0 | 0.00 | 0.00 | 0.00 | 78 | 1016.2 |
| 20260508135143 | 55 | 0 | 0.0 | 0.0 | 0.00 | 0.00 | 0.00 | 79 | 1016.2 |
| 20260508134122 | 55 | 0 | 0.0 | 0.0 | 0.00 | 0.00 | 0.00 | 80 | 1016.0 |
| 20260508133145 | 55 | 0 | 0.0 | 0.0 | 0.00 | 0.00 | 0.00 | 81 | 1016.1 |
| 20260508132122 | 55 | 0 | 0.0 | 0.0 | 0.00 | 0.00 | 0.00 | 82 | 1016.2 |
| 20260508131124 | 55 | 0 | 0.0 | 0.0 | 0.00 | 0.00 | 0.00 | 83 | 1015.9 |
| 20260508130122 | 54 | 123 | 1.0 | 3.0 | 0.00 | 0.00 | 0.00 | 83 | 1015.8 |
| 20260508125122 | 55 | 115 | 1.0 | 3.0 | 0.00 | 0.00 | 0.00 | 83 | 1015.7 |
| 20260508124122 | 55 | 0 | 0.0 | 0.0 | 0.00 | 0.00 | 0.00 | 83 | 1015.8 |
| 20260508123124 | 55 | 0 | 0.0 | 0.0 | 0.00 | 0.00 | 0.00 | 83 | 1015.8 |
| 20260508122122 | 55 | 128 | 0.0 | 2.0 | 0.00 | 0.00 | 0.00 | 82 | 1015.7 |
| 20260508121124 | 55 | 0 | 0.0 | 2.0 | 0.00 | 0.00 | 0.00 | 82 | 1015.6 |
| 20260508120122 | 55 | 0 | 0.0 | 2.0 | 0.00 | 0.00 | 0.00 | 82 | 1015.6 |
| 20260508115122 | 55 | 128 | 1.0 | 3.0 | 0.00 | 0.00 | 0.00 | 82 | 1015.5 |
| 20260508114122 | 55 | 127 | 1.0 | 3.0 | 0.00 | 0.00 | 0.00 | 82 | 1015.6 |
| 20260508113143 | 55 | 98 | 1.0 | 5.0 | 0.00 | 0.00 | 0.00 | 82 | 1015.6 |
| 20260508112145 | 55 | 0 | 0.0 | 2.0 | 0.00 | 0.00 | 0.00 | 82 | 1015.5 |
| 20260508111122 | 55 | 124 | 0.0 | 2.0 | 0.00 | 0.00 | 0.00 | 82 | 1015.5 |
| 20260508110123 | 55 | 128 | 2.0 | 5.0 | 0.00 | 0.00 | 0.00 | 82 | 1015.6 |
| 20260508105122 | 55 | 133 | 0.0 | 3.0 | 0.00 | 0.00 | 0.00 | 82 | 1015.5 |
| 20260508104122 | 55 | 0 | 0.0 | 0.0 | 0.00 | 0.00 | 0.00 | 81 | 1015.5 |
| 20260508103144 | 55 | 0 | 0.0 | 0.0 | 0.00 | 0.00 | 0.00 | 81 | 1015.5 |
| 20260508102122 | 55 | 86 | 0.0 | 3.0 | 0.00 | 0.00 | 0.00 | 81 | 1015.5 |
| 20260508101123 | 56 | 103 | 0.0 | 2.0 | 0.00 | 0.00 | 0.00 | 81 | 1015.5 |
| 20260508100124 | 56 | 103 | 0.0 | 3.0 | 0.00 | 0.00 | 0.00 | 80 | 1015.4 |
| 20260508095122 | 56 | 103 | 0.0 | 2.0 | 0.00 | 0.00 | 0.00 | 80 | 1015.3 |
| 20260508094125 | 56 | 128 | 0.0 | 3.0 | 0.00 | 0.00 | 0.00 | 79 | 1015.4 |
| 20260508093122 | 56 | 125 | 2.0 | 8.0 | 0.00 | 0.00 | 0.00 | 79 | 1015.2 |
| 20260508092124 | 56 | 128 | 2.0 | 6.0 | 0.00 | 0.00 | 0.00 | 79 | 1015.3 |
| 20260508091124 | 56 | 125 | 2.0 | 8.0 | 0.00 | 0.00 | 0.00 | 79 | 1015.2 |
| 20260508090122 | 56 | 126 | 2.0 | 6.0 | 0.00 | 0.00 | 0.00 | 77 | 1015.3 |
| 20260508085124 | 56 | 118 | 1.0 | 6.0 | 0.00 | 0.00 | 0.00 | 77 | 1015.5 |
| 20260508084122 | 57 | 119 | 1.0 | 5.0 | 0.00 | 0.00 | 0.00 | 77 | 1015.5 |
| 20260508083124 | 57 | 109 | 0.0 | 3.0 | 0.00 | 0.00 | 0.00 | 77 | 1015.5 |
| 20260508082123 | 56 | 126 | 0.0 | 2.0 | 0.00 | 0.00 | 0.00 | 77 | 1015.5 |
| 20260508081122 | 56 | 127 | 1.0 | 5.0 | 0.00 | 0.00 | 0.00 | 77 | 1015.6 |
| 20260508080124 | 56 | 125 | 1.0 | 5.0 | 0.00 | 0.00 | 0.00 | 77 | 1015.7 |
| 20260508075124 | 56 | 125 | 1.0 | 6.0 | 0.00 | 0.00 | 0.00 | 77 | 1015.8 |
| 20260508074124 | 56 | 124 | 2.0 | 6.0 | 0.00 | 0.00 | 0.00 | 78 | 1015.8 |
| 20260508073122 | 56 | 126 | 2.0 | 6.0 | 0.00 | 0.00 | 0.00 | 78 | 1015.9 |
| 20260508072122 | 56 | 121 | 1.0 | 5.0 | 0.00 | 0.00 | 0.00 | 78 | 1016.0 |
| 20260508071122 | 56 | 133 | 0.0 | 3.0 | 0.00 | 0.00 | 0.00 | 78 | 1016.1 |
| 20260508070143 | 56 | 0 | 0.0 | 0.0 | 0.00 | 0.00 | 0.00 | 78 | 1016.0 |
| 20260508065122 | 56 | 0 | 0.0 | 0.0 | 0.00 | 0.00 | 0.00 | 78 | 1016.1 |
| 20260508064122 | 56 | 0 | 0.0 | 0.0 | 0.00 | 0.00 | 0.00 | 77 | 1016.0 |
| 20260508063124 | 56 | 140 | 0.0 | 3.0 | 0.00 | 0.00 | 0.00 | 77 | 1016.1 |
| 20260508062122 | 56 | 0 | 0.0 | 0.0 | 0.00 | 0.00 | 0.00 | 76 | 1016.1 |
| 20260508061143 | 57 | 0 | 0.0 | 0.0 | 0.00 | 0.00 | 0.00 | 76 | 1016.1 |
| 20260508060145 | 57 | 0 | 0.0 | 0.0 | 0.00 | 0.00 | 0.00 | 75 | 1016.0 |
| 20260508055123 | 57 | 0 | 0.0 | 0.0 | 0.00 | 0.00 | 0.00 | 75 | 1016.0 |
| 20260508054122 | 58 | 0 | 0.0 | 0.0 | 0.00 | 0.00 | 0.00 | 74 | 1015.8 |
| 20260508053122 | 58 | 130 | 1.0 | 5.0 | 0.00 | 0.00 | 0.00 | 73 | 1015.8 |
| 20260508052122 | 59 | 143 | 2.0 | 6.0 | 0.00 | 0.00 | 0.00 | 72 | 1015.8 |
| 20260508051128 | 59 | 129 | 2.0 | 5.0 | 0.00 | 0.00 | 0.00 | 71 | 1015.8 |
| 20260508051124 | 59 | 130 | 2.0 | 5.0 | 0.00 | 0.00 | 0.00 | 71 | 1015.8 |
| 20260508050122 | 59 | 130 | 0.0 | 3.0 | 0.00 | 0.00 | 0.00 | 71 | 1015.8 |
| 20260508045122 | 59 | 153 | 1.0 | 5.0 | 0.00 | 0.00 | 0.00 | 70 | 1015.9 |
| 20260508044123 | 59 | 225 | 0.0 | 3.0 | 0.00 | 0.00 | 0.00 | 70 | 1016.0 |
| 20260508043124 | 59 | 0 | 0.0 | 0.0 | 0.00 | 0.00 | 0.00 | 70 | 1016.0 |
| 20260508042122 | 59 | 231 | 1.0 | 8.0 | 0.00 | 0.00 | 0.00 | 70 | 1016.0 |
| 20260508041124 | 59 | 229 | 2.0 | 8.0 | 0.00 | 0.00 | 0.00 | 70 | 1016.0 |
| 20260508040122 | 60 | 255 | 0.0 | 3.0 | 0.00 | 0.00 | 0.00 | 70 | 1016.0 |
| 20260508035124 | 60 | 248 | 2.0 | 13.0 | 0.00 | 0.00 | 0.00 | 69 | 1016.0 |
| 20260508034143 | 60 | 244 | 4.0 | 14.0 | 0.00 | 0.00 | 0.00 | 69 | 1016.0 |
| 20260508033124 | 60 | 241 | 2.0 | 6.0 | 0.00 | 0.00 | 0.00 | 67 | 1015.9 |
| 20260508032122 | 61 | 230 | 3.0 | 13.0 | 0.00 | 0.00 | 0.00 | 66 | 1015.7 |
| 20260508031125 | 61 | 238 | 3.0 | 13.0 | 0.00 | 0.00 | 0.00 | 65 | 1015.8 |
| 20260508030124 | 62 | 228 | 5.0 | 14.0 | 0.00 | 0.00 | 0.00 | 63 | 1015.8 |
| 20260508025122 | 62 | 225 | 4.0 | 11.0 | 0.00 | 0.00 | 0.00 | 64 | 1015.8 |
| 20260508024123 | 63 | 232 | 4.0 | 13.0 | 0.00 | 0.00 | 0.00 | 62 | 1015.9 |